Temperature
12 13 13 13 13 13 13 13 13 13 14 16 16 16 16 16 16 17 17 17 17 17 17 17 17 17 17 17 17 17 16 16 16 16 16 16 16 15
12 12 12 13 13 13 13 13 13 13 13 14 15 15 16 16 16 16 16 16 17 17 17 17 17 17 17 17 17 16 16 16 16 16 16 16 15 15
12 12 12 12 13 13 13 13 13 13 13 14 14 15 15 15 16 16 16 16 16 16 16 17 17 17 17 16 16 16 16 16 16 16 16 15 15 15
12 12 12 12 12 12 12 13 13 13 13 13 14 14 15 15 15 15 16 16 16 16 16 16 16 16 16 16 16 16 16 16 16 16 15 15 15 15
11 12 12 12 12 12 12 12 12 13 12 13 13 14 14 14 15 15 15 15 15 16 16 16 16 16 16 16 16 16 16 16 16 15 15 15 15 15
11 11 12 12 12 12 12 12 12 12 12 12 13 13 14 14 14 14 15 15 15 15 15 15 15 15 16 16 16 16 16 16 16 15 15 15 15 15
12 11 11 11 11 11 11 12 12 12 12 12 13 13 13 13 14 14 14 14 15 15 15 15 15 15 15 15 15 15 15 15 15 15 15 15 15 14
12 12 12 12 11 11 11 11 11 12 12 12 12 12 13 13 13 13 13 14 14 15 14 15 15 15 15 15 15 15 15 15 15 15 15 15 14 14
11 11 12 11 11 11 11 11 11 11 11 11 12 12 12 13 13 13 13 13 13 14 14 14 15 15 15 15 15 15 15 15 15 15 15 14 14 14
11 11 11 11 11 11 11 12 12 12 12 12 12 12 12 12 12 12 12 12 13 13 13 13 14 14 15 15 15 15 15 15 15 14 14 14 14 14
11 11 11 11 11 11 11 12 12 12 12 12 12 12 12 12 12 12 12 12 12 13 13 13 14 14 14 14 14 14 14 14 14 14 14 14 14 13
12 12 11 11 11 11 11 11 12 12 12 12 12 12 12 12 12 12 12 12 12 12 13 13 13 13 13 14 14 14 14 14 14 14 14 13 13 13
12 12 12 11 11 11 11 11 11 11 12 12 12 12 12 12 12 12 12 12 12 12 12 12 12 13 12 13 13 13 13 13 14 13 13 13 13 13
12 12 12 11 11 11 11 11 11 11 11 11 12 12 12 12 12 12 12 12 12 12 12 12 12 12 12 12 12 13 13 13 13 13 13 13 13 12
12 12 12 11 11 11 11 11 11 11 11 11 11 11 11 11 11 12 12 12 12 12 12 12 12 12 12 12 12 12 12 12 13 12 12 12 12 12
12 12 12 12 11 11 11 11 11 11 11 11 11 11 11 11 11 11 11 11 11 11 12 12 11 11 12 12 12 12 12 12 12 12 12 12 12 12
12 12 12 11 11 11 11 11 11 11 11 11 11 11 11 11 11 11 11 11 11 11 11 11 11 11 11 11 11 11 11 12 12 12 11 11 11 11
12 11 11 11 11 11 11 11 11 11 11 11 11 11 11 11 11 11 11 11 11 11 11 11 11 11 11 11 11 11 11 11 11 11 11 11 11 11
11 11 11 11 11 11 11 11 11 11 10 10 11 11 11 11 11 10 10 10 10 11 11 11 10 10 10 10 11 11 11 11 11 11 11 11 11 11
10 10 10 10 10 10 10 10 10 10 10 10 10 10 10 10 10 10 10 10 10 10 10 10 10 10 10 11 10 10 10 10 10 10 10 10 10 10
9 9 10 10 10 10 10 10 10 10 10 10 10 10 10 10 10 10 10 10 10 10 10 10 10 10 10 10 10 10 10 10 10 10 10 10 9 9
8 8 8 8 9 9 9 9 10 10 10 10 10 10 10 10 10 10 10 10 10 10 10 10 10 10 10 10 10 10 10 10 10 10 10 10 10 9
7 7 7 7 8 8 8 8 9 9 9 9 9 9 9 10 10 10 10 10 10 10 10 10 10 10 9 9 10 10 10 9 9 9 9 9 9 9
Wind_Speed
4 4 3 3 3 3 3 4 4 3 4 4 4 4 5 7 12 13 14 19 23 24 25 25 25 25 26 25 25 25 24 23 23 22 22 21 20 19
4 5 4 3 3 3 3 3 4 4 4 3 4 3 3 4 9 11 14 18 22 23 24 24 25 26 26 25 25 24 24 23 23 23 23 22 21 20
6 6 6 5 4 3 2 2 3 4 6 4 3 3 4 5 4 7 10 11 14 22 23 24 24 24 25 25 25 25 24 24 24 24 24 23 22 21
7 6 7 6 5 4 2 3 3 4 4 6 4 3 4 5 5 5 6 9 10 17 22 24 25 25 25 25 25 25 24 24 25 25 24 25 24 23
6 6 6 6 5 4 4 3 3 3 3 4 4 3 3 3 3 4 5 5 7 11 17 21 23 24 24 24 25 25 25 25 25 26 26 25 25 25
6 6 6 5 5 5 4 4 3 3 3 3 4 3 3 3 3 4 4 4 6 6 9 13 18 21 23 23 24 25 26 26 26 26 27 27 26 26
7 7 7 8 8 5 4 4 3 3 3 3 4 3 3 3 3 3 4 4 4 5 5 6 8 9 12 19 23 24 25 26 27 27 27 27 27 26
7 7 7 6 7 8 8 6 4 4 4 4 4 5 5 4 4 4 3 3 4 4 5 6 6 8 9 11 18 23 25 26 26 27 27 27 27 27
6 6 6 6 6 5 7 8 7 7 6 5 6 7 5 5 4 5 5 5 5 4 4 5 5 8 7 10 18 22 25 26 26 27 27 27 28 28
6 6 5 6 6 6 5 5 6 6 6 5 6 7 7 7 6 6 6 5 4 3 4 5 4 5 5 7 16 21 23 25 26 27 27 27 27 27
6 5 5 5 8 8 4 6 7 7 7 8 9 10 11 12 8 5 5 5 5 4 4 4 4 4 4 6 9 18 22 23 25 27 27 27 27 27
5 6 7 7 9 9 5 5 8 8 7 8 8 8 7 8 9 8 7 6 4 4 5 5 4 3 3 3 5 7 12 17 23 25 26 27 27 20
5 5 5 9 10 11 8 6 10 10 7 7 7 7 6 5 5 5 6 7 7 6 4 5 4 4 4 2 2 5 7 7 12 15 23 26 28 21
6 5 6 10 12 12 9 10 13 10 5 6 6 6 5 5 4 4 5 6 7 8 6 6 5 6 5 4 3 3 5 6 8 9 10 18 23 23
6 9 10 12 12 10 11 13 10 5 4 5 6 6 5 5 4 3 4 4 4 5 5 6 6 5 5 5 4 4 3 5 7 8 9 11 11 11
6 7 9 10 9 9 9 7 5 5 5 5 6 5 4 3 3 3 3 3 3 3 3 4 6 7 6 5 5 5 5 5 7 8 8 8 9 10
3 2 3 4 5 5 5 6 5 4 4 4 5 5 5 4 4 3 3 3 4 3 3 2 2 3 4 5 5 6 6 5 6 8 8 7 8 9
2 2 4 5 6 6 6 6 5 5 5 5 5 5 5 5 5 3 3 3 4 4 3 3 3 2 1 1 3 5 6 5 5 8 7 7 7 7
1 4 5 6 6 6 6 6 6 6 5 5 6 6 5 5 5 4 4 4 4 4 4 3 4 4 5 5 3 4 5 5 6 6 6 5 7 9
3 5 6 6 6 7 7 7 7 7 5 5 6 6 6 6 5 5 5 5 5 4 4 4 5 6 7 5 3 3 7 7 7 7 5 3 4 6
5 5 6 6 7 7 7 7 7 7 7 6 5 6 6 6 7 7 6 7 7 5 6 6 5 5 3 3 3 2 3 6 6 6 7 6 4 5
7 7 7 8 8 8 8 8 7 7 7 6 6 6 6 6 8 8 7 7 7 7 6 4 3 4 4 5 5 4 4 4 3 6 9 7 6 8
7 7 7 8 8 8 9 9 10 8 8 8 7 7 6 7 8 8 8 8 7 7 6 5 4 4 4 5 5 4 6 6 5 4 3 3 5 5
Wind_Direction
338 332 315 287 273 247 225 203 208 250 269 255 249 239 221 220 219 214 216 215 214 215 216 216 217 217 217 216 218 218 216 214 212 208 206 206 205 203
339 341 331 306 298 279 245 224 210 214 248 262 250 263 251 238 226 218 219 218 215 215 217 218 219 218 217 217 216 216 213 212 210 207 204 204 204 202
341 341 329 317 306 300 280 243 224 213 244 266 256 257 244 246 239 225 225 222 221 219 219 220 222 221 218 217 216 214 212 210 208 205 203 202 201 200
330 332 329 333 320 303 290 268 249 230 231 260 270 263 250 244 237 233 227 224 223 223 220 221 222 222 220 217 215 212 211 209 206 204 203 202 201 199
316 316 314 324 319 307 296 279 268 264 239 249 267 261 262 254 247 243 233 228 225 227 222 223 223 223 220 216 215 212 210 208 206 204 202 202 200 198
312 307 303 299 291 291 287 276 275 281 273 264 269 270 262 259 234 237 240 225 226 224 222 221 223 224 222 218 216 214 211 209 207 205 202 200 197 195
315 312 306 306 303 299 289 269 261 268 278 273 274 274 269 258 244 235 238 237 233 216 214 217 213 218 220 223 221 218 213 209 206 204 201 197 195 193
310 313 313 313 328 333 327 312 272 251 257 262 266 264 265 255 251 246 240 235 247 214 205 222 206 218 219 216 218 216 213 210 205 202 200 196 193 191
297 305 315 320 329 321 319 320 313 296 269 249 254 257 259 249 244 248 238 233 238 221 200 231 212 221 221 220 216 212 211 208 204 201 198 195 192 190
287 290 294 302 306 311 309 312 306 301 291 274 250 257 259 257 241 240 243 250 256 240 198 224 217 223 223 219 217 213 209 206 203 200 197 193 190 188
289 289 290 290 299 313 306 304 305 302 296 288 275 272 271 271 256 236 232 235 252 243 204 209 213 212 220 228 219 211 209 205 201 198 195 191 187 184
288 288 290 290 297 307 293 289 294 295 301 306 302 296 283 279 265 232 223 228 236 243 210 198 201 187 224 227 216 209 210 207 201 197 193 188 182 183
273 281 283 295 299 300 295 274 274 283 287 288 292 291 286 276 264 241 224 222 229 238 207 186 197 191 203 224 225 211 207 207 204 201 195 186 181 181
249 260 272 290 297 298 295 283 285 289 279 285 288 286 283 277 270 265 247 238 239 240 216 191 201 198 196 205 223 215 207 200 196 198 194 185 183 181
243 257 271 285 297 297 292 293 295 281 273 278 279 279 271 268 274 279 272 253 248 239 218 207 207 204 205 209 200 197 197 203 193 191 188 187 188 181
252 271 285 290 289 283 291 294 279 259 256 263 272 274 275 278 276 273 270 267 263 255 222 206 208 206 216 212 203 201 191 189 187 187 182 183 181 183
239 277 293 303 305 304 301 294 286 275 263 257 262 275 282 280 274 264 259 254 252 249 238 215 201 203 209 202 208 207 194 193 184 177 176 181 184 182
186 272 287 290 291 293 297 299 294 279 266 258 258 260 268 274 275 267 255 259 260 254 242 219 189 187 201 256 212 195 192 190 179 171 166 174 182 179
283 289 291 292 292 291 287 285 286 281 269 256 255 256 256 260 262 261 256 259 259 253 242 221 208 205 214 225 220 196 186 175 170 174 173 166 181 182
331 313 312 309 304 299 295 291 288 286 276 261 256 256 252 251 254 253 250 251 255 252 246 229 221 218 220 213 192 197 188 176 176 179 169 138 121 134
350 338 328 322 316 311 304 300 295 289 281 270 260 255 252 247 251 251 248 247 244 243 242 240 230 203 171 142 160 185 190 189 176 173 164 152 147 157
1 356 351 349 345 338 329 320 313 307 300 287 275 265 255 248 250 250 246 244 240 238 240 233 186 177 187 201 205 188 175 165 150 153 162 160 166 180
2 1 358 353 351 349 348 346 343 340 336 329 316 298 279 264 255 248 244 240 238 235 231 219 201 202 209 204 197 184 178 174 165 159 165 165 171 175
Height
1483 1482 1482 1482 1482 1483 1483 1483 1484 1483 1482 1483 1484 1486 1487 1489 1491 1492 1494 1496 1499 1502 1505 1507 1510 1512 1514 1517 1519 1522 1525 1527 1529 1532 1534 1536 1538 1539
1481 1480 1480 1479 1479 1479 1479 1480 1480 1480 1479 1478 1480 1481 1482 1484 1485 1487 1488 1490 1493 1496 1498 1501 1504 1506 1509 1511 1514 1517 1519 1522 1524 1527 1529 1531 1534 1535
1479 1478 1477 1476 1476 1476 1476 1476 1476 1476 1475 1474 1475 1476 1477 1478 1479 1481 1482 1484 1486 1489 1492 1494 1497 1500 1503 1506 1508 1511 1514 1516 1519 1522 1524 1527 1529 1531
1476 1475 1474 1474 1473 1472 1472 1472 1472 1472 1472 1470 1471 1471 1472 1473 1474 1475 1476 1478 1480 1483 1485 1488 1491 1494 1497 1500 1502 1505 1508 1511 1513 1516 1519 1521 1524 1526
1474 1473 1472 1471 1470 1469 1469 1469 1468 1468 1468 1467 1466 1467 1467 1468 1468 1469 1470 1472 1474 1476 1479 1481 1484 1487 1490 1493 1496 1498 1501 1504 1507 1510 1513 1516 1518 1521
1472 1471 1469 1468 1467 1467 1466 1466 1465 1465 1464 1463 1462 1462 1462 1463 1463 1464 1465 1466 1468 1470 1472 1474 1477 1479 1482 1485 1488 1491 1494 1498 1501 1504 1507 1510 1512 1515
1470 1469 1467 1466 1465 1464 1463 1463 1462 1461 1460 1459 1459 1458 1458 1458 1459 1459 1460 1461 1462 1464 1465 1467 1469 1472 1474 1477 1480 1483 1487 1490 1493 1497 1500 1503 1506 1509
1469 1467 1466 1464 1463 1462 1461 1460 1459 1458 1457 1456 1455 1454 1454 1454 1454 1454 1455 1455 1456 1458 1460 1461 1462 1464 1466 1470 1472 1475 1479 1482 1486 1489 1493 1496 1500 1503
1467 1465 1464 1462 1461 1460 1458 1457 1456 1455 1454 1453 1452 1451 1450 1450 1450 1450 1450 1450 1450 1452 1454 1454 1456 1457 1460 1462 1465 1468 1471 1474 1477 1481 1485 1489 1493 1496
1465 1463 1462 1460 1459 1457 1456 1455 1453 1452 1451 1449 1448 1447 1446 1445 1445 1445 1445 1445 1445 1446 1448 1448 1449 1450 1453 1455 1457 1460 1462 1465 1469 1472 1476 1481 1485 1488
1463 1461 1459 1458 1456 1455 1453 1451 1450 1449 1447 1446 1444 1443 1442 1441 1440 1440 1440 1440 1439 1440 1442 1442 1443 1444 1446 1447 1450 1452 1455 1457 1460 1464 1468 1472 1476 1481
1462 1459 1457 1455 1454 1452 1450 1448 1446 1445 1443 1441 1440 1439 1437 1436 1435 1435 1435 1435 1435 1434 1435 1437 1437 1439 1440 1440 1443 1444 1447 1449 1452 1456 1460 1464 1468 1473
1459 1457 1455 1453 1451 1449 1447 1445 1443 1441 1439 1437 1435 1434 1433 1431 1430 1430 1429 1430 1429 1429 1430 1431 1432 1433 1434 1435 1435 1437 1439 1441 1444 1447 1451 1455 1460 1464
1456 1454 1452 1450 1448 1446 1444 1442 1440 1438 1436 1434 1432 1430 1429 1427 1426 1425 1424 1424 1423 1423 1424 1426 1426 1427 1428 1429 1429 1431 1433 1435 1437 1439 1443 1447 1451 1456
1452 1451 1449 1447 1445 1443 1441 1439 1437 1435 1433 1431 1429 1427 1425 1424 1422 1421 1420 1419 1418 1417 1418 1419 1420 1422 1423 1423 1424 1426 1427 1429 1431 1434 1436 1439 1443 1447
1448 1447 1445 1444 1442 1440 1438 1436 1434 1432 1430 1428 1426 1424 1422 1420 1419 1417 1416 1415 1414 1413 1413 1414 1414 1416 1416 1417 1419 1420 1421 1423 1425 1428 1431 1434 1437 1441
1444 1443 1442 1440 1438 1436 1434 1433 1431 1429 1427 1426 1424 1422 1420 1417 1416 1414 1413 1411 1410 1409 1409 1409 1410 1410 1411 1412 1413 1414 1415 1417 1419 1422 1425 1428 1431 1435
1441 1439 1438 1436 1434 1432 1430 1429 1427 1426 1424 1422 1421 1419 1417 1415 1413 1411 1410 1408 1407 1406 1405 1405 1406 1407 1407 1408 1408 1409 1410 1412 1415 1417 1420 1422 1426 1430
1437 1436 1434 1433 1431 1429 1427 1425 1423 1422 1420 1419 1417 1416 1414 1412 1410 1408 1407 1405 1404 1403 1403 1402 1402 1403 1403 1403 1403 1405 1407 1408 1410 1413 1415 1418 1422 1426
1433 1432 1430 1429 1427 1425 1423 1421 1420 1418 1416 1415 1413 1412 1410 1409 1407 1405 1404 1403 1401 1400 1399 1399 1399 1399 1399 1400 1401 1401 1403 1405 1406 1409 1412 1415 1419 1423
1430 1429 1427 1425 1423 1421 1419 1417 1415 1414 1412 1411 1409 1408 1406 1405 1403 1402 1400 1399 1398 1397 1396 1395 1395 1396 1396 1397 1397 1397 1399 1401 1403 1406 1409 1412 1415 1418
1428 1426 1424 1422 1419 1417 1415 1413 1411 1409 1408 1406 1404 1403 1402 1400 1399 1397 1396 1395 1394 1393 1392 1392 1392 1392 1392 1393 1393 1394 1395 1397 1400 1402 1406 1408 1410 1413
1426 1424 1421 1419 1416 1413 1411 1409 1406 1404 1403 1400 1399 1397 1396 1395 1393 1392 1391 1390 1389 1388 1388 1388 1388 1388 1388 1389 1389 1390 1392 1393 1396 1398 1401 1404 1407 1411